Regional Weather Roundup
Issued by NWS

Home | Current Version | Previous Version | Text Only | Print | Product List | Glossary Off
Versions: 1 2 3 4 5 6 7 8 9 10 11 12 13 14 15 16 17 18 19 20 21 22 23 24 25 26 27 28 29 30 31 32 33 34 35 36 37 38 39 40 41 42 43 44 45 46 47 48 49

000
ASUS45 KSLC 281610
RWRUT

UTAH REGIONAL WEATHER ROUNDUP
NATIONAL WEATHER SERVICE SALT LAKE CITY UT
900 AM MST SUN DEC 28 2014

UTZ001>011-023>025-281700-

NORTHERN UTAH

CITY           SKY/WX    TMP DP  RH WIND       PRES   REMARKS
BRIGHAM CITY   CLOUDY    31  20  63 S5        30.06S WCI  26
HILL AFB       FLURRIES  25  20  82 SE7       30.04F WCI  17
LOGAN          CLOUDY    29  19  66 S8        30.02S WCI  21
OGDEN          FLURRIES  27  21  78 SE6       30.04F WCI  20
PROVO AIRPORT  CLOUDY    25  16  68 CALM      30.11S
SALT LAKE CITY FLURRIES  28  17  63 SE15      30.06F WCI  16
VERNAL         MOSUNNY   14   9  80 E3        30.10S
WENDOVER       PTCLDY    21  12  68 NE7       30.05F WCI  13
HEBER CITY     CLOUDY    18  14  86 SE3       30.06F
WEST JORDAN    CLOUDY    28  18  64 S16       30.08F WCI  17

$$

UTZ012>022-026-027-281700-

SOUTHERN/CENTRAL UTAH

CITY           SKY/WX    TMP DP  RH WIND       PRES   REMARKS
BLANDING       PTSUNNY   19  11  74 CALM      30.25R
BRYCE CANYON   PTSUNNY   11   3  70 SW5       30.11R WCI   3
CEDAR CITY     CLOUDY    18  10  71 NE3       30.15R
DELTA          CLOUDY    21  17  86 W3        30.13R
MILFORD        PTSUNNY   21  10  62 SW17      30.13F WCI   7
MOAB/CYNLANDS  PTSUNNY   18  12  77 CALM      30.17S
PRICE          PTSUNNY   21   6  52 CALM      30.11S
ST GEORGE      MOSUNNY   25   9  50 CALM      30.30R
KANAB          MOSUNNY   19  12  73 CALM      30.24F

$$

REGIONAL REPORTS     COLORADO/ARIZONA

CITY           SKY/WX    TMP DP  RH WIND       PRES   REMARKS
CRAIG, CO      CLOUDY    16   9  74 NE7       30.05S WCI   6
GRAND JUNCTION CLOUDY    20  11  68 SE5       30.17S WCI  13
RIFLE          CLOUDY    15  11  83 N3        30.17R
MONTROSE       CLOUDY    18  10  71 CALM      30.19R
CORTEZ         SUNNY     17  10  74 NE3       30.19S
PAGE, AZ       MOSUNNY   28   9  44 CALM      30.20F
GRAND CANYON   MOSUNNY   13   8  81 CALM      30.19S
KINGMAN        MOSUNNY   25  14  63 SW5       30.24R WCI  19
FLAGSTAFF      MOSUNNY   23  13  65 SW3       30.18S

$$

REGIONAL REPORTS    NEVADA/IDAHO/WYOMING

CITY           SKY/WX    TMP DP  RH WIND       PRES   REMARKS
LAS VEGAS, NV  PTSUNNY   37  13  37 S5        30.24R WCI  33
ELY            CLOUDY    19  11  70 S9        30.14S WCI   8
ELKO           CLEAR     28  18  66 VRB3      30.08R
POCATELLO, ID  FLURRIES  27  24  89 SW17      29.98R WCI  14
BURLEY         MIX PCPN  30  26  85 W15G21    30.01R WCI  19
EVANSTON, WY   CLOUDY    17  15  92 S18       29.94F WCI   1
ROCK SPRINGS   LGT SNOW  16  12  84 SW7       29.94R VSB 1   WCI   6

$$



USA.gov is the U.S. government's official web portal to all federal, state and local government web resources and services.